Home > Time Zones > World Clock > Weather > India > Alwar > Past weeks

Flag for India Weather past 2 weeks in Alwar, Rajasthan, India

Now
93 °F

Broken clouds.


Feels Like: 89 °F
Forecast: 71 / 88 °F
Wind: 8 mph from Southwest

Location: Jaipur / Sanganer

Current Time: Mar 29, 2015 at 6:45:11 PM

Latest Report: Mar 29, 2015 at 6:00 PM


Visibility: 2 mi

Pressure: 29.74 "Hg

Humidity: 17%

Dew point: 43 °F

Location of AlwarLocation

Historic Weather in Alwar — Graph

°F

Alwar temperature yesterday

Maximum temperature yesterday: 97 °F (at 4:00 PM)
Minimum temperature yesterday: 73 °F (at 6:00 AM)
Average temperature yesterday: 86 °F

Past Weeks' High & Low Weather Summary

 TemperatureHumidityPressure
High99 °F (Mar 25, 4:00 PM)100% (Mar 14, 8:00 PM)30.15 "Hg (Mar 14, 8:00 PM)
Low59 °F (Mar 15, 2:00 AM)17% (Mar 24, 3:30 PM)29.74 "Hg (Mar 29, 4:00 PM)
Average79 °F49%29.98 "Hg
* Reported Mar 14 5:00 PM — Mar 29 5:00 PM, Alwar, Weather by CustomWeather, © 2015

Note: Actual official high and low records may vary slightly from our data, if they occured in-between our weather recording intervals... More about our weather records

Advertising

Alwar weather history for previous 24 hours

 ConditionsComfort  
Time TempWeatherWind HumidityBarometerVisibility
5:00 PM
Sun, Mar 29
93 °FBroken clouds.2 mph21%29.74 "Hg2 mi
4:00 PM95 °FBroken clouds.3 mph22%29.74 "Hg2 mi
2:00 PM93 °FBroken clouds.6 mph24%29.80 "Hg2 mi
12:00 PM90 °FBroken clouds.5 mph26%29.83 "Hg2 mi
11:00 AM90 °FBroken clouds.5 mph26%29.86 "Hg2 mi
9:00 AMN/ABroken clouds.5 mphN/A29.83 "Hg2 mi
7:00 AM79 °FBroken clouds.2 mph48%29.80 "Hg2 mi
6:00 AM79 °FPartly cloudy.5 mph48%29.80 "Hg2 mi
5:00 AM79 °FPassing clouds.5 mph51%29.80 "Hg2 mi
3:00 AM81 °FPassing clouds.5 mph42%29.80 "Hg2 mi
2:00 AM81 °FHaze.6 mph42%29.83 "Hg2 mi
1:00 AM82 °FHaze.5 mph37%29.83 "Hg2 mi
12:00 AM82 °FHaze.7 mph37%29.83 "Hg2 mi
9:00 PM
Sat, Mar 28
88 °FHaze.6 mph33%29.83 "Hg2 mi
8:00 PM90 °FHaze.6 mph31%29.80 "Hg2 mi
7:00 PM91 °FHaze.6 mph30%29.80 "Hg2 mi
6:00 PM95 °FHaze.6 mph25%29.80 "Hg3 mi
Weather by CustomWeather, © 2015

See weather overviewHow to use our weather pages